Weather History for Minden, LA

Change the Weather History Date:

Thursday, April 4, 2013

  Actual Average (KBAD) Record (KBAD)
Temperature  
Mean Temperature 44 °F -  
Max Temperature 47 °F 71 °F 81 °F (2012)
Min Temperature 41 °F 52 °F 41 °F (1998)
Degree Days  
Heating Degree Days 21    
Moisture  
Dew Point 41 °F    
Average Humidity 88    
Maximum Humidity 94    
Minimum Humidity 79    
Precipitation  
Precipitation 0.00 in - - ()
Sea Level Pressure  
Sea Level Pressure 30.09 in    
Wind  
Wind Speed 5 mph (NNW)    
Max Wind Speed 13 mph    
Max Gust Speed 20 mph    
Visibility 8 miles    
Events Rain    
Averages and records for this station are not official NWS values.
T = Trace of Precipitation, MM = Missing Value Source: NWS Daily Summary

Daily Weather History Graph

Daily Weather History Graph

Search for Another Location

Airport:

Trip Planner

Search our weather history database for the weather conditions in past years. The results will help you decide how hot, cold, wet, or windy it might be!

Date:

Astronomy

Apr. 04, 2013 Rise Set
Actual Time 6:57 AM CDT 7:35 PM CDT
Civil Twilight 6:32 AM CDT 8:00 PM CDT
Nautical Twilight 6:02 AM CDT 8:29 PM CDT
Astronomical Twilight 5:33 AM CDT 8:59 PM CDT
Moon 3:05 AM CDT (4/4) 2:11 PM CDT (4/4)
Length of Visible Light 13h 28m
Length of Day
12h 38m
Waning Crescent, 33% of the Moon is Illuminated
Apr 4
Waning Crescent
Apr 10
New
Apr 18
First Quarter
Apr 25
Full
May 2
Last Quarter

Hourly Weather History & Observations

Time (CDT) Temp. Windchill Dew Point Humidity Pressure Visibility Wind Dir Wind Speed Gust Speed Precip Events Conditions
12:15 AM 42.3 °F - 40.1 °F 92% 30.12 in 4.0 mi Calm Calm - N/A   Overcast
12:35 AM 42.3 °F 40.5 °F 40.1 °F 92% 30.11 in 4.0 mi North 3.5 mph - N/A   Overcast
12:55 AM 42.6 °F 39.9 °F 40.5 °F 92% 30.11 in 4.0 mi North 4.6 mph - N/A   Overcast
1:15 AM 42.3 °F 39.4 °F 40.3 °F 93% 30.10 in 3.0 mi North 4.6 mph - N/A   Light Drizzle
1:35 AM 42.3 °F 38.6 °F 40.3 °F 93% 30.09 in 3.0 mi North 5.8 mph - N/A   Drizzle
1:55 AM 42.1 °F - 40.1 °F 93% 30.09 in 3.0 mi Calm Calm - N/A   Drizzle
2:15 AM 42.1 °F - 40.3 °F 93% 30.07 in 3.0 mi Calm Calm - N/A   Light Drizzle
2:35 AM 42.1 °F 39.2 °F 40.3 °F 93% 30.07 in 4.0 mi North 4.6 mph - N/A   Overcast
2:55 AM 41.9 °F - 40.1 °F 93% 30.06 in 4.0 mi Calm Calm - N/A   Overcast
3:15 AM 41.9 °F 39.0 °F 40.1 °F 93% 30.05 in 4.0 mi North 4.6 mph - N/A   Drizzle
3:35 AM 42.1 °F 39.2 °F 40.3 °F 93% 30.04 in 4.0 mi North 4.6 mph - N/A   Light Drizzle
3:55 AM 42.1 °F 39.2 °F 40.3 °F 93% 30.04 in 4.0 mi NNW 4.6 mph - N/A Rain Light Rain
4:15 AM 42.1 °F 39.2 °F 40.3 °F 93% 30.04 in 2.5 mi NW 4.6 mph - N/A   Light Drizzle
4:35 AM 41.9 °F 39.0 °F 40.3 °F 94% 30.04 in 3.0 mi NNW 4.6 mph - N/A   Overcast
4:55 AM 41.9 °F 40.0 °F 40.3 °F 94% 30.04 in 7.0 mi NW 3.5 mph - N/A   Overcast
5:15 AM 42.3 °F - 40.5 °F 93% 30.04 in 10.0 mi Calm Calm - N/A   Overcast
5:35 AM 42.1 °F 39.2 °F 40.3 °F 93% 30.04 in 10.0 mi NW 4.6 mph - N/A   Overcast
5:55 AM 41.9 °F 37.5 °F 40.1 °F 93% 30.05 in 10.0 mi NNW 6.9 mph - N/A   Overcast
6:15 AM 42.1 °F 40.2 °F 40.3 °F 93% 30.05 in 7.0 mi NW 3.5 mph - N/A   Overcast
6:35 AM 42.3 °F 39.4 °F 40.5 °F 93% 30.05 in 4.0 mi NNW 4.6 mph - N/A   Overcast
6:55 AM 42.3 °F 38.6 °F 40.5 °F 93% 30.06 in 3.0 mi NW 5.8 mph - N/A   Overcast
7:15 AM 42.3 °F 38.6 °F 40.6 °F 94% 30.07 in 2.0 mi NNW 5.8 mph - N/A   Overcast
7:35 AM 42.6 °F 39.0 °F 41.0 °F 94% 30.08 in 1.8 mi NNW 5.8 mph - N/A   Overcast
7:55 AM 42.8 °F 38.6 °F 41.0 °F 93% 30.08 in 1.8 mi NNW 6.9 mph - N/A   Overcast
8:15 AM 43.0 °F 37.7 °F 41.2 °F 93% 30.08 in 2.0 mi NNW 9.2 mph - N/A   Overcast
8:35 AM 43.0 °F 37.7 °F 41.0 °F 93% 30.08 in 2.0 mi North 9.2 mph - N/A   Overcast
8:55 AM 43.2 °F 38.4 °F 41.0 °F 92% 30.09 in 4.0 mi North 8.1 mph - N/A   Overcast
9:15 AM 43.3 °F 39.2 °F 41.2 °F 92% 30.09 in 5.0 mi North 6.9 mph - N/A   Overcast
9:35 AM 43.7 °F 39.7 °F 41.2 °F 91% 30.09 in 5.0 mi North 6.9 mph - N/A   Overcast
9:55 AM 43.9 °F 39.9 °F 41.2 °F 90% 30.09 in 5.0 mi North 6.9 mph - N/A   Overcast
10:15 AM 44.4 °F 41.2 °F 41.4 °F 89% 30.10 in 7.0 mi North 5.8 mph - N/A   Overcast
10:35 AM 44.6 °F 40.7 °F 41.5 °F 89% 30.10 in 10.0 mi NNW 6.9 mph - N/A   Overcast
10:55 AM 45.3 °F 43.0 °F 41.9 °F 88% 30.10 in 10.0 mi NNW 4.6 mph - N/A   Overcast
11:35 AM 45.9 °F 42.3 °F 41.9 °F 86% 30.10 in 10.0 mi North 6.9 mph - N/A   Overcast
11:55 AM 46.0 °F 41.9 °F 42.1 °F 86% 30.11 in 10.0 mi NW 8.1 mph - N/A   Overcast
12:15 PM 45.9 °F 42.3 °F 41.9 °F 86% 30.11 in 10.0 mi NNW 6.9 mph - N/A   Overcast
12:55 PM 46.0 °F 42.5 °F 41.9 °F 85% 30.10 in 10.0 mi NW 6.9 mph - N/A   Overcast
1:15 PM 46.4 °F 42.9 °F 41.5 °F 83% 30.09 in 10.0 mi NW 6.9 mph - N/A   Overcast
1:35 PM 46.8 °F - 41.9 °F 83% 30.09 in 10.0 mi NNW 8.1 mph - N/A   Overcast
1:55 PM 46.9 °F - 41.9 °F 83% 30.08 in 10.0 mi NW 6.9 mph - N/A   Overcast
2:15 PM 47.3 °F - 41.9 °F 82% 30.08 in 10.0 mi NW 9.2 mph - N/A   Overcast
2:35 PM 47.3 °F - 42.1 °F 82% 30.08 in 10.0 mi WNW 5.8 mph - N/A   Overcast
2:55 PM 46.6 °F - 41.9 °F 84% 30.08 in 10.0 mi NW 9.2 mph - N/A   Overcast
3:15 PM 46.4 °F 42.4 °F 41.5 °F 83% 30.07 in 10.0 mi NW 8.1 mph - N/A   Overcast
3:35 PM 46.6 °F - 41.2 °F 81% 30.07 in 10.0 mi NNW 10.4 mph - N/A   Overcast
3:55 PM 46.4 °F 42.9 °F 41.5 °F 83% 30.06 in 10.0 mi NW 6.9 mph - N/A   Overcast
4:15 PM 46.6 °F - 41.2 °F 81% 30.06 in 10.0 mi NNW 12.7 mph 19.6 mph N/A   Overcast
4:35 PM 47.3 °F - 41.5 °F 80% 30.06 in 10.0 mi NNW 8.1 mph - N/A   Overcast
4:55 PM 47.3 °F - 41.2 °F 79% 30.06 in 10.0 mi NW 9.2 mph - N/A   Overcast
5:15 PM 46.8 °F - 41.2 °F 81% 30.07 in 10.0 mi NNW 9.2 mph 16.1 mph N/A   Overcast
5:35 PM 46.6 °F - 41.2 °F 81% 30.07 in 10.0 mi WNW 6.9 mph - N/A   Overcast
5:55 PM 46.6 °F - 41.4 °F 82% 30.08 in 10.0 mi NW 8.1 mph - N/A   Overcast
6:15 PM 46.6 °F - 41.9 °F 84% 30.08 in 10.0 mi NW 5.8 mph - N/A   Overcast
6:35 PM 46.6 °F - 41.9 °F 84% 30.08 in 10.0 mi NW 5.8 mph - N/A   Overcast
6:55 PM 46.6 °F - 42.1 °F 84% 30.09 in 10.0 mi WNW 5.8 mph - N/A   Overcast
7:15 PM 46.8 °F - 42.1 °F 84% 30.09 in 10.0 mi NW 5.8 mph - N/A   Overcast
7:55 PM 46.8 °F - 42.3 °F 84% 30.09 in 10.0 mi NNW 6.9 mph - N/A   Overcast
8:15 PM 46.8 °F - 42.4 °F 85% 30.09 in 10.0 mi NW 5.8 mph - N/A   Overcast
8:35 PM 46.8 °F - 42.4 °F 85% 30.10 in 10.0 mi NW 5.8 mph - N/A   Overcast
8:55 PM 46.9 °F - 42.1 °F 83% 30.11 in 10.0 mi NNW 9.2 mph - N/A   Overcast
9:15 PM 46.8 °F - 41.9 °F 83% 30.11 in 10.0 mi NNW 6.9 mph - N/A   Overcast
9:35 PM 46.8 °F - 41.4 °F 81% 30.12 in 10.0 mi NNW 4.6 mph - N/A   Overcast
9:55 PM 46.8 °F - 42.1 °F 84% 30.12 in 10.0 mi Calm Calm - N/A   Overcast
10:15 PM 46.6 °F - 42.3 °F 85% 30.13 in 10.0 mi Calm Calm - N/A   Overcast
10:35 PM 46.4 °F 43.5 °F 42.4 °F 86% 30.14 in 10.0 mi NW 5.8 mph - N/A   Overcast
10:55 PM 46.6 °F - 42.8 °F 87% 30.14 in 10.0 mi Calm Calm - N/A   Overcast
11:15 PM 46.6 °F - 42.8 °F 87% 30.15 in 10.0 mi Calm Calm - N/A   Overcast
11:35 PM 46.6 °F - 42.8 °F 87% 30.15 in 10.0 mi WNW 3.5 mph - N/A   Overcast
11:55 PM 46.6 °F - 42.8 °F 87% 30.15 in 10.0 mi Calm Calm - N/A   Overcast